Chillicothe, MO

8:47 PM CDT on July 25, 2017 (GMT -0500)
Chillicothe

Weather History for KCDJ - November, 2012

Change the Weather History Date:

Monday, November 26, 2012

  Actual Average (KIRK) Record (KIRK)
Temperature  
Mean Temperature 29 °F -  
Max Temperature 37 °F 46 °F 73 °F (1990)
Min Temperature 18 °F 29 °F 2 °F (1977)
Degree Days  
Heating Degree Days 36    
Moisture  
Dew Point 20 °F    
Average Humidity 66    
Maximum Humidity 82    
Minimum Humidity 54    
Precipitation  
Precipitation 0.00 in - - ()
Sea Level Pressure  
Sea Level Pressure 30.35 in    
Wind  
Wind Speed 7 mph (North)    
Max Wind Speed 13 mph    
Max Gust Speed 21 mph    
Averages and records for this station are not official NWS values.
T = Trace of Precipitation, MM = Missing Value Source: NWS Daily Summary

Daily Weather History Graph

Daily Weather History Graph

Search for Another Location

Airport or City:

Trip Planner

Search our weather history database for the weather conditions in past years. The results will help you decide how hot, cold, wet, or windy it might be!

Date:

Astronomy

Nov. 26, 2012 Rise Set
Actual Time 7:11 AM CST 4:51 PM CST
Civil Twilight 6:42 AM CST 5:21 PM CST
Nautical Twilight 6:08 AM CST 5:54 PM CST
Astronomical Twilight 5:36 AM CST 6:26 PM CST
Moon 3:44 PM CST 5:22 AM CST
Length of Visible Light 10h 39m
Length of Day
9h 39m
Waxing Gibbous, 97% of the Moon is Illuminated
Nov 26
Waxing Gibbous
Nov 28
Full
Dec 6
Last Quarter
Dec 13
New
Dec 19
First Quarter

Hourly Weather History & Observations

Time (CST) Temp. Windchill Dew Point Humidity Pressure Visibility Wind Dir Wind Speed Gust Speed Precip Events Conditions
12:52 AM 30.9 °F 25.2 °F 24.1 °F 76% 30.14 in - North 5.8 mph - N/A   Unknown
1:52 AM 28.9 °F 22.8 °F 23.0 °F 78% 30.15 in - North 5.8 mph - N/A   Unknown
2:52 AM 28.9 °F 22.8 °F 24.1 °F 82% 30.17 in - North 5.8 mph - N/A   Unknown
3:52 AM 30.0 °F 23.2 °F 24.1 °F 79% 30.18 in - North 6.9 mph - N/A   Unknown
4:52 AM 30.9 °F 26.2 °F 24.1 °F 76% 30.20 in - NNE 4.6 mph - N/A   Unknown
5:52 AM 30.9 °F 25.2 °F 24.1 °F 76% 30.22 in - NNE 5.8 mph - N/A   Unknown
6:52 AM 30.9 °F 26.2 °F 23.0 °F 72% 30.25 in - NNE 4.6 mph - N/A   Unknown
7:52 AM 32.0 °F 24.8 °F 21.9 °F 66% 30.27 in - NNE 8.1 mph - N/A   Unknown
8:52 AM 36.0 °F 27.5 °F 21.9 °F 57% 30.29 in - NE 12.7 mph 18.4 mph N/A   Unknown
9:52 AM 36.0 °F 27.5 °F 21.0 °F 55% 30.33 in - NNE 12.7 mph 20.7 mph N/A   Unknown
10:52 AM 37.0 °F 29.3 °F 21.9 °F 54% 30.37 in - NNE 11.5 mph - N/A   Unknown
11:52 AM 37.0 °F 29.8 °F 23.0 °F 57% 30.38 in - North 10.4 mph - N/A   Unknown
12:52 PM 34.0 °F 25.5 °F 25.0 °F 70% 30.39 in - NNE 11.5 mph - N/A   Unknown
1:52 PM 36.0 °F 28.5 °F 21.9 °F 57% 30.39 in - North 10.4 mph 18.4 mph N/A   Unknown
2:52 PM 34.0 °F 26.0 °F 21.0 °F 59% 30.40 in - North 10.4 mph 18.4 mph N/A   Unknown
3:52 PM 34.0 °F 26.6 °F 21.0 °F 59% 30.41 in - North 9.2 mph - N/A   Unknown
4:52 PM 33.1 °F 27.7 °F 19.9 °F 59% 30.42 in - North 5.8 mph - N/A   Unknown
5:52 PM 30.0 °F 26.5 °F 18.0 °F 61% 30.43 in - North 3.5 mph - N/A   Unknown
6:52 PM 28.9 °F 22.8 °F 18.0 °F 64% 30.47 in - North 5.8 mph - N/A   Unknown
7:52 PM 27.0 °F 19.5 °F 15.1 °F 61% 30.48 in - North 6.9 mph - N/A   Unknown
8:52 PM 25.0 °F 19.3 °F 12.9 °F 60% 30.50 in - North 4.6 mph - N/A   Unknown
9:52 PM 23.0 °F 17.0 °F 10.9 °F 60% 30.51 in - Variable 4.6 mph - N/A   Unknown
10:52 PM 21.0 °F - 10.9 °F 65% 30.52 in - Calm Calm - N/A   Unknown
11:52 PM 18.0 °F - 10.9 °F 74% 30.53 in - Calm Calm - N/A   Unknown